Flag for Denmark Weather past 2 weeks in Roskilde, Denmark

Now
37 °F

Drizzle. Overcast.


Feels Like: 28 °F
Forecast: 35 / 44 °F
Wind: 15 mph from Northwest

Location: Koebenhavn / Roskilde

Current Time: Apr 1, 2015 at 3:15:40 AM

Latest Report: Apr 1, 2015 at 2:20 AM


Visibility: N/A

Pressure: 29.33 "Hg

Humidity: 93%

Dew point: 36 °F

Location of RoskildeLocation

Historic Weather in Roskilde — Graph

°F

Roskilde temperature yesterday

Maximum temperature yesterday: 39 °F (at 12:20 AM)
Minimum temperature yesterday: 34 °F (at 3:20 AM)
Average temperature yesterday: 36 °F

Past Weeks' High & Low Weather Summary

 TemperatureHumidityPressure
High52 °F (Mar 19, 12:50 PM)100% (Mar 20, 7:50 AM)30.54 "Hg (Mar 20, 7:50 AM)
Low23 °F (Mar 22, 2:20 AM)32% (Mar 19, 3:20 PM)28.88 "Hg (Mar 31, 12:20 PM)
Average40 °F81%29.88 "Hg
* Reported Mar 17 1:20 AM — Apr 1 2:20 AM, Roskilde, Weather by CustomWeather, © 2015

Note: Actual official high and low records may vary slightly from our data, if they occured in-between our weather recording intervals... More about our weather records

Advertising

Roskilde weather history for previous 24 hours

 ConditionsComfort  
Time TempWeatherWind HumidityBarometerVisibility
2:20 AM
Wed, Apr 1
37 °FDrizzle. Overcast.15 mph93%29.33 "HgN/A
1:50 AM37 °FLight rain. Partly cloudy.10 mph100%29.30 "HgN/A
1:20 AM37 °FPartly cloudy.13 mph93%29.30 "HgN/A
12:50 AM37 °FPartly cloudy.10 mph93%29.30 "HgN/A
12:20 AM37 °FPassing clouds.12 mph93%29.30 "HgN/A
11:50 PM
Tue, Mar 31
37 °FLight rain. Partly cloudy.10 mph93%29.27 "HgN/A
11:20 PM37 °FLight rain. Passing clouds.13 mph93%29.27 "HgN/A
10:50 PM36 °FLight rain. Passing clouds.12 mph100%29.27 "Hg6 mi
10:20 PM36 °FLight rain. Mostly cloudy.9 mph93%29.24 "HgN/A
9:50 PM36 °FLight rain. Partly cloudy.15 mph93%29.24 "Hg6 mi
9:20 PM36 °FLight rain. Overcast.10 mph100%29.21 "HgN/A
8:50 PM37 °FLight rain. Partly cloudy.8 mph93%29.21 "HgN/A
8:20 PM37 °FLight rain. Mostly cloudy.12 mph93%29.15 "HgN/A
7:50 PM37 °FLight rain. Mostly cloudy.13 mph87%29.12 "HgN/A
7:20 PM37 °FLight rain. Cloudy.13 mph93%29.09 "HgN/A
6:50 PM37 °FLight rain. Cloudy.13 mph93%29.06 "HgN/A
6:20 PM37 °FLight rain. Broken clouds.9 mph93%29.00 "HgN/A
5:50 PM37 °FLight rain. Broken clouds.7 mph93%28.97 "HgN/A
5:20 PM37 °FLight rain. Partly sunny.8 mph93%28.94 "HgN/A
4:50 PM37 °FDrizzle. Broken clouds.9 mph93%28.94 "HgN/A
4:20 PM37 °FLight rain. Broken clouds.10 mph93%28.91 "HgN/A
3:50 PM37 °FLight rain. Broken clouds.13 mph93%28.91 "HgN/A
3:20 PM36 °FLight rain. Cloudy.12 mph93%28.91 "HgN/A
2:50 PM37 °FDrizzle. Cloudy.14 mph93%28.91 "HgN/A
2:20 PM36 °FLight rain. Cloudy.16 mph100%28.88 "HgN/A
1:50 PM36 °FLight rain. Mostly cloudy.17 mph100%28.88 "HgN/A
1:20 PM36 °FLight rain. Mostly cloudy.15 mph93%28.88 "HgN/A
12:50 PM36 °FLight rain. Cloudy.17 mph93%28.88 "HgN/A
12:20 PM36 °FLight rain. Cloudy.18 mph93%28.88 "Hg6 mi
11:50 AM36 °FLight rain. Mostly cloudy.22 mph93%28.91 "HgN/A
11:20 AM36 °FLight rain. Mostly cloudy.22 mph93%28.91 "HgN/A
10:50 AM36 °FLight rain. Cloudy.25 mph93%28.91 "HgN/A
10:20 AM36 °FLight rain. Cloudy.23 mph93%28.94 "HgN/A
9:50 AM36 °FLight rain. Broken clouds.22 mph93%28.97 "HgN/A
9:20 AM34 °FLight rain. Cloudy.21 mph100%28.97 "HgN/A
8:50 AM34 °FLight rain. Mostly cloudy.17 mph100%29.00 "HgN/A
8:20 AM34 °FLight rain. Fog.15 mph100%29.03 "HgN/A
7:50 AM36 °FDrizzle. Mostly cloudy.17 mph93%29.06 "HgN/A
7:20 AM37 °FMostly cloudy.14 mph81%29.06 "HgN/A
6:50 AM37 °FPassing clouds.13 mph87%29.09 "HgN/A
6:20 AM37 °FPassing clouds.8 mph93%29.12 "HgN/A
5:50 AM37 °FLight rain. Overcast.10 mph93%29.15 "Hg6 mi
5:20 AM37 °FPartly cloudy.10 mph93%29.18 "HgN/A
4:50 AM36 °FPassing clouds.7 mph93%29.21 "HgN/A
4:20 AM36 °FPartly cloudy.8 mph87%29.24 "HgN/A
3:50 AM34 °FPassing clouds.8 mph93%29.27 "HgN/A
3:20 AM34 °FPassing clouds.7 mph93%29.30 "HgN/A
Weather by CustomWeather, © 2015

See weather overviewHow to use our weather pages